Regional Weather Roundup
Issued by NWS

Home | Current Version | Previous Version | Graphics & Text | Print | Product List | Glossary On
Versions: 1 2 3 4 5 6 7 8 9 10 11 12 13 14 15 16 17 18 19 20 21 22 23 24 25 26 27 28 29 30 31 32 33 34 35 36 37 38 39 40 41 42 43 44 45 46 47 48 49 50
000
ASUS43 KMKX 291211
RWRWI

WISCONSIN REGIONAL WEATHER ROUNDUP
NATIONAL WEATHER SERVICE MILWAUKEE/SULLIVAN WI
700 AM CDT WED JUL 29 2015

NOTE: "FAIR" INDICATES FEW OR NO CLOUDS BELOW 12,000 FEET WITH NO
SIGNIFICANT WEATHER AND/OR OBSTRUCTIONS TO VISIBILITY.

WIZ001-002-006>008-014>016-023>028-291300-
NORTHWEST WISCONSIN

CITY           SKY/WX    TMP DP  RH WIND       PRES   REMARKS
SUPERIOR ARPT  CLOUDY    64  52  64 SW15      29.73S
6HR MIN TEMP:  62; 6HR MAX TEMP:  68;

ASHLAND        SUNNY     67  52  58 SW17G29   29.75S
6HR MIN TEMP:  65; 6HR MAX TEMP:  69;

HAYWARD        SUNNY     67  49  52 W20G29    29.82R
6HR MIN TEMP:  66; 6HR MAX TEMP:  71;

SIREN          SUNNY     65  51  59 SW16G23   29.85R
6HR MIN TEMP:  65; 6HR MAX TEMP:  67;

CUMBERLAND     SUNNY     63  48  59 W15G22    29.87R
RICE LAKE      SUNNY     64  52  64 SW12      29.89S
6HR MIN TEMP:  63; 6HR MAX TEMP:  67;

CHETEK         SUNNY     65  55  69 S9        29.88S
6HR MIN TEMP:  62; 6HR MAX TEMP:  70;

LADYSMITH      SUNNY     64  54  69 S12       29.89S
6HR MIN TEMP:  62; 6HR MAX TEMP:  74;

EAU CLAIRE     SUNNY     66  55  67 SW9       29.92R
6HR MIN TEMP:  63; 6HR MAX TEMP:  72;

MENOMONIE      SUNNY     67  52  58 SW14G23   29.92R
6HR MIN TEMP:  65; 6HR MAX TEMP:  71;

NEW RICHMOND   SUNNY     64  52  63 SW10      29.92R
6HR MIN TEMP:  62; 6HR MAX TEMP:  67;

OSCEOLA        SUNNY     68  50  52 SW22G30   29.92S
6HR MIN TEMP:  65; 6HR MAX TEMP:  68;

$$

WIZ003>005-009-010-017-018-291300-
NORTH CENTRAL WISCONSIN

CITY           SKY/WX    TMP DP  RH WIND       PRES   REMARKS
MANITOWISH WTR SUNNY     64  53  66 SW10      29.84S
6HR MIN TEMP:  61; 6HR MAX TEMP:  74;

ARBOR VITAE    SUNNY     64  54  68 SW9       29.86F
6HR MIN TEMP:  64; 6HR MAX TEMP:  77;

WOODRUFF       SUNNY     64  54  68 SW9       29.86F
6HR MIN TEMP:  64; 6HR MAX TEMP:  77;

RHINELANDER    FAIR      66  54  65 SW13      29.90S
6HR MIN TEMP:  65; 6HR MAX TEMP:  74; 6HR PCP: TRACE;

EAGLE RIVER    SUNNY     65  51  61 SW10      29.86S
6HR MIN TEMP:  63; 6HR MAX TEMP:  72;

LAND O LAKES   SUNNY     66  50  56 SW9G17    29.86R
6HR MIN TEMP:  65; 6HR MAX TEMP:  74; 6HR PCP:  0.01;

PHILLIPS       SUNNY     63  55  76 S12       29.87S
6HR MIN TEMP:  62; 6HR MAX TEMP:  75;

TOMAHAWK       MOSUNNY   63  54  71 S3        29.91S
6HR MIN TEMP:  61; 6HR MAX TEMP:  73;

MEDFORD        MOSUNNY   63  57  81 SW9       29.93S
6HR MIN TEMP:  61; 6HR MAX TEMP:  73;

MERRILL        NOT AVBL
$$

WIZ029-030-035-036-043>047-291300-
CENTRAL WISCONSIN

CITY           SKY/WX    TMP DP  RH WIND       PRES   REMARKS
WAUSAU         PTSUNNY   68  57  68 SW10      29.91S
6HR MIN TEMP:  68; 6HR MAX TEMP:  76; 6HR PCP: TRACE;

MOSINEE        SUNNY     66  61  82 SW10      29.95S
MARSHFIELD     PTSUNNY   66  56  70 W8        29.95R
6HR MIN TEMP:  63; 6HR MAX TEMP:  76;

STEVENS POINT  PTSUNNY   67  58  72 W9        29.95R
6HR MIN TEMP:  67; 6HR MAX TEMP:  74;

WAUPACA        CLOUDY    74  59  57 W8        29.94R
6HR MIN TEMP:  73; 6HR MAX TEMP:  78;

WAUTOMA        CLOUDY    73  62  68 W8        29.96R
6HR MIN TEMP:  73; 6HR MAX TEMP:  76;

WISC RAPIDS    PTSUNNY   69  59  70 W7        29.97R
6HR MIN TEMP:  69; 6HR MAX TEMP:  76;

CAMP DOUGLAS   PTSUNNY   68  63  83 W8        29.97
                                      6HR PCP:  0.02;

$$

WIZ011>013-019>022-031-037>040-048>050-291300-
NORTHEAST WISCONSIN

CITY           SKY/WX    TMP DP  RH WIND       PRES   REMARKS
ANTIGO         PTSUNNY   65  56  74 W8        29.92F
SHAWANO        PTSUNNY   74  57  54 W7        29.90S
6HR MIN TEMP:  73; 6HR MAX TEMP:  76;

OCONTO         CLOUDY    74  61  62 W9        29.86R
6HR MIN TEMP:  71; 6HR MAX TEMP:  75;

STURGEON BAY   CLOUDY    73  64  73 W12       29.90R
6HR MIN TEMP:  72; 6HR MAX TEMP:  75;

GREEN BAY      CLOUDY    75  62  64 W9        29.89R
6HR MIN TEMP:  71; 6HR MAX TEMP:  76;

MANITOWOC      CLOUDY    76  70  82 MISG      29.90R
6HR MIN TEMP:  71; 6HR MAX TEMP:  76;

APPLETON       PTSUNNY   73  57  56 W9        29.92S
CLINTONVILLE   CLOUDY    72  55  56 W9        29.91R
OSHKOSH        CLOUDY    75  65  70 W7        29.93R
6HR MIN TEMP:  74; 6HR MAX TEMP:  76;

$$

WIZ032>034-041-042-053>061-291300-
SOUTHWEST WISCONSIN

CITY           SKY/WX    TMP DP  RH WIND       PRES   REMARKS
LA CROSSE      PTSUNNY   71  53  52 W10       29.97S
6HR MIN TEMP:  68; 6HR MAX TEMP:  77;

SPARTA         CLOUDY    65  59  81 CALM      29.98S
6HR MIN TEMP:  65; 6HR MAX TEMP:  74;

VIROQUA        PTSUNNY   67  59  75 W5        30.01S
6HR MIN TEMP:  65; 6HR MAX TEMP:  73;

BOSCOBEL       CLOUDY    71  67  87 SW5       30.00R
6HR MIN TEMP:  71; 6HR MAX TEMP:  76; 6HR PCP: TRACE;

PRAIRIE DU CHI CLOUDY    71  60  68 W3        30.01R
6HR MIN TEMP:  70; 6HR MAX TEMP:  75;

PLATTEVILLE    CLOUDY    69  68  94 NW3       30.00R
6HR MIN TEMP:  68; 6HR MAX TEMP:  74; 6HR PCP:  0.19;

$$

WIZ056-057-062-063-064-067-068-291300-
SOUTH CENTRAL WISCONSIN

CITY           SKY/WX    TMP DP  RH WIND       PRES   REMARKS
REEDSBURG      CLOUDY    71  64  78 W8        29.98R
6HR MIN TEMP:  71; 6HR MAX TEMP:  75;

BARABOO/DELLS  CLOUDY    72  62  71 W5        29.98S
6HR MIN TEMP:  72; 6HR MAX TEMP:  75;

LONE ROCK      CLOUDY    72  65  78 CALM      29.99S
6HR MIN TEMP:  72; 6HR MAX TEMP:  75;

MINERAL POINT  CLOUDY    72  70  94 NW6       30.00S
MADISON        CLOUDY    70  67  90 NW5       29.96F
6HR MIN TEMP:  69; 6HR MAX TEMP:  78; 6HR PCP:  1.42;

MIDDLETON      CLOUDY    73  72  97 NW6       29.98F
6HR MIN TEMP:  72; 6HR MAX TEMP:  76; 6HR PCP:  0.22;

WATERTOWN      RAIN      70  70  99 NW20      29.96R
6HR MIN TEMP:  70; 6HR MAX TEMP:  74; 6HR PCP:  0.45;

MONROE         CLOUDY    70  64  83 NW3       29.99R
JANESVILLE     PTSUNNY   73  70  88 NW12      29.96R
$$

WIZ051-052-058>065-066-070>072-291300-
SOUTHEAST WISCONSIN

CITY           SKY/WX    TMP DP  RH WIND       PRES   REMARKS
MILWAUKEE      CLOUDY    77  71  82 NW10      29.93R
6HR MIN TEMP:  74; 6HR MAX TEMP:  78; 6HR PCP: TRACE;

WAUKESHA       LGT RAIN  72  72 100 NW12      29.96R
MILWAUKEE/TIMM CLOUDY    73  70  88 W9        29.94R
RACINE         CLOUDY    77  71  82 W7        29.94R
6HR MIN TEMP:  74; 6HR MAX TEMP:  78;

BURLINGTON     CLOUDY    73  70  91 W10       29.95R
6HR MIN TEMP:  69; 6HR MAX TEMP:  73;

KENOSHA        CLOUDY    76  72  87 W7        29.94R
6HR MIN TEMP:  73; 6HR MAX TEMP:  77; 6HR PCP: TRACE;

FOND DU LAC    CLOUDY    75  70  84 W7        29.94R
6HR MIN TEMP:  74; 6HR MAX TEMP:  76; 6HR PCP: TRACE;

SHEBOYGAN      CLOUDY    76  70  82 W10       29.90S
6HR MIN TEMP:  68; 6HR MAX TEMP:  76; 6HR PCP: TRACE;

WEST BEND      DRIZZLE   72  70  94 W10       29.94R
JUNEAU         RAIN      72  69  90 W13       29.98R
6HR MIN TEMP:  72; 6HR MAX TEMP:  74; 6HR PCP:  0.10;

$$

LSZ147-162-291300-
LAKE SUPERIOR

STATION/POSITION TIME  TEMP    WIND        PRES    WAVE
                       AIR SEA DIR/SP/G            HT/PER
                 (UTC) (F)     (DEG/KT/KT) (MB)    (FT/S)
W MID LAKE BUOY  1150   66 61  220/ 21/ 27 1004.5F   5/ 5
DEVILS ISLAND    1200   68     240/ 28/ 33 1005.4S
PORT WING        1100   68     210/ 13/ 24 1006.8S
SAXON HARBOR     1140   69                 1007.1F
$$

LMZ867-665-643>646-291300-
LAKE MICHIGAN

STATION/POSITION TIME  TEMP    WIND        PRES    WAVE
                       AIR SEA DIR/SP/G            HT/PER


USA.gov is the U.S. government's official web portal to all federal, state and local government web resources and services.